User: anonymous   Login
Location: Austin
(30.3000°N, 97.7500°W)
Time: 11:32:45
(UTC-06:00)
Language:

Aureole 1 Rocket - Orbit

View from above orbital plane
View from above orbital plane
View from above satellite
View from above satellite

Ground track
Ground track

The orbit data is extracted from the following two-line orbital elements,

1  5730U 71119B   23334.28679118  .00018417  00000-0  11133-2 0  9993
2  5730  73.8939 264.2548 0629927  39.5677 324.9727 14.17548688536953
Epoch (UTC): 30 November 2023 06:52:58
Eccentricity: 0.0629927
inclination: 73.8939°
perigee height: 379 km
apogee height: 1288 km
right ascension of ascending node: 264.2548°
argument of perigee: 39.5677°
revolutions per day: 14.17548688
mean anomaly at epoch: 324.9727°
orbit number at epoch: 53695

The dashed part of the orbit path shows where the satellite is in the earth's shadow,  

DLR